Marshalltown, IA

1:27 AM CDT on August 20, 2017 (GMT -0500)
Marshalltown Municipal

Weather History for KMIW - January, 2013

Change the Weather History Date:

Tuesday, January 29, 2013

  Actual Average Record
Temperature  
Mean Temperature 44 °F 20 °F  
Max Temperature 55 °F 29 °F 55 °F (2013)
Min Temperature 33 °F 11 °F -13 °F (2004)
Degree Days  
Heating Degree Days 21 45  
Month to date heating degree days 1221 1332  
Since 1 July heating degree days 3772 4144  
Cooling Degree Days 0 0  
Month to date cooling degree days 0 0  
Year to date cooling degree days 0 0  
Moisture  
Dew Point 39 °F    
Average Humidity 95    
Maximum Humidity 100    
Minimum Humidity 89    
Precipitation  
Precipitation 0.06 in 0.04 in 0.33 in (2001)
Month to date precipitation 0.74 0.78  
Sea Level Pressure  
Sea Level Pressure 29.57 in    
Wind  
Wind Speed 13 mph (NW)    
Max Wind Speed 22 mph    
Max Gust Speed 28 mph    
Visibility 6 miles    
Events Fog , Rain , Snow , Thunderstorm    
T = Trace of Precipitation, MM = Missing Value Source: NWS Daily Summary

Daily Weather History Graph

Daily Weather History Graph

Search for Another Location

Airport or City:

Trip Planner

Search our weather history database for the weather conditions in past years. The results will help you decide how hot, cold, wet, or windy it might be!

Date:

Astronomy

Jan. 29, 2013 Rise Set
Actual Time 7:27 AM CST 5:22 PM CST
Civil Twilight 6:57 AM CST 5:52 PM CST
Nautical Twilight 6:23 AM CST 6:26 PM CST
Astronomical Twilight 5:51 AM CST 6:59 PM CST
Moon 8:23 PM CST (1/29) 8:20 AM CST (1/29)
Length of Visible Light 10h 55m
Length of Day
9h 55m
Waning Gibbous, 93% of the Moon is Illuminated
Jan 29
Waning Gibbous
Feb 3
Last Quarter
Feb 10
New
Feb 17
First Quarter
Feb 25
Full

Hourly Weather History & Observations

Time (CST) Temp. Windchill Dew Point Humidity Pressure Visibility Wind Dir Wind Speed Gust Speed Precip Events Conditions
12:31 AM 46.4 °F 41.9 °F 44.6 °F 93% 29.57 in 2.0 mi SSE 9.2 mph - 0.00 in   Mostly Cloudy
12:39 AM 46.4 °F 40.7 °F 46.4 °F 100% 29.56 in 6.0 mi South 12.7 mph - 0.00 in   Mostly Cloudy
12:49 AM 48.2 °F - 48.2 °F 100% 29.56 in 2.0 mi SSE 11.5 mph - 0.00 in   Mostly Cloudy
12:53 AM 46.9 °F - 46.9 °F 100% 29.57 in 0.8 mi SSE 12.7 mph - 0.00 in   Mostly Cloudy
1:53 AM 46.0 °F 40.6 °F 46.0 °F 100% 29.54 in 0.2 mi SSE 11.5 mph - 0.01 in Fog Fog
2:37 AM 46.4 °F 44.3 °F 46.4 °F 100% 29.53 in 0.5 mi Variable 4.6 mph - 0.00 in Fog , Rain , Thunderstorm Light Rain
2:49 AM 48.2 °F - 48.2 °F 100% 29.53 in 2.0 mi South 17.3 mph 21.9 mph 0.02 in Rain , Thunderstorm Light Rain
2:53 AM 50.0 °F - 50.0 °F 100% 29.53 in 4.0 mi South 11.5 mph 21.9 mph 0.03 in Rain Light Rain
3:04 AM 51.8 °F - 51.8 °F 100% 29.51 in 5.0 mi South 11.5 mph - 0.01 in Rain , Thunderstorm Light Rain
3:19 AM 53.6 °F - 53.6 °F 100% 29.51 in 10.0 mi SSW 11.5 mph - 0.02 in Rain Light Rain
3:53 AM 52.0 °F - 52.0 °F 100% 29.52 in 5.0 mi South 8.1 mph - 0.02 in   Mostly Cloudy
4:40 AM 51.8 °F - 51.8 °F 100% 29.50 in 4.0 mi South 9.2 mph - N/A   Overcast
4:53 AM 53.1 °F - 53.1 °F 100% 29.53 in 5.0 mi West 15.0 mph 19.6 mph N/A   Mostly Cloudy
5:00 AM 51.8 °F - 51.8 °F 100% 29.53 in 4.0 mi WNW 20.7 mph 24.2 mph N/A   Overcast
5:06 AM 48.2 °F - 48.2 °F 100% 29.54 in 5.0 mi WNW 17.3 mph - N/A   Overcast
5:53 AM 43.0 °F 37.2 °F 43.0 °F 100% 29.57 in 6.0 mi WNW 10.4 mph - N/A   Overcast
6:21 AM 41.0 °F 35.2 °F 41.0 °F 100% 29.56 in 7.0 mi WNW 9.2 mph - N/A   Overcast
6:29 AM 41.0 °F 33.9 °F 39.2 °F 93% 29.56 in 6.0 mi WNW 12.7 mph - N/A   Overcast
6:53 AM 39.0 °F 31.0 °F 39.0 °F 100% 29.59 in 7.0 mi WNW 13.8 mph - N/A   Overcast
7:53 AM 37.0 °F 31.0 °F 37.0 °F 100% 29.59 in 5.0 mi WNW 8.1 mph - N/A   Overcast
8:53 AM 37.0 °F 31.6 °F 36.0 °F 96% 29.62 in 5.0 mi West 6.9 mph - N/A   Overcast
9:13 AM 37.4 °F 33.8 °F 35.6 °F 93% 29.60 in 5.0 mi West 4.6 mph - N/A   Overcast
9:21 AM 37.4 °F 32.1 °F 35.6 °F 93% 29.60 in 5.0 mi WNW 6.9 mph - N/A   Overcast
9:38 AM 37.4 °F 29.3 °F 35.6 °F 93% 29.62 in 6.0 mi West 12.7 mph - N/A   Overcast
9:53 AM 37.0 °F 28.1 °F 36.0 °F 96% 29.62 in 7.0 mi WNW 15.0 mph - N/A   Overcast
10:53 AM 35.1 °F 25.2 °F 34.0 °F 96% 29.64 in 6.0 mi NW 16.1 mph - N/A   Overcast
11:53 AM 35.1 °F 26.9 °F 33.1 °F 92% 29.62 in 10.0 mi NNW 11.5 mph - N/A   Overcast
12:53 PM 35.1 °F 27.4 °F 33.1 °F 92% 29.60 in 10.0 mi NNW 10.4 mph - N/A   Overcast
1:53 PM 35.1 °F 26.4 °F 33.1 °F 92% 29.59 in 10.0 mi North 12.7 mph - N/A   Overcast
2:53 PM 35.1 °F 25.5 °F 33.1 °F 92% 29.58 in 10.0 mi North 15.0 mph - N/A   Overcast
3:40 PM 33.8 °F 23.9 °F 32.0 °F 93% 29.55 in 6.0 mi North 15.0 mph 20.7 mph N/A   Overcast
3:53 PM 34.0 °F 23.8 °F 32.0 °F 92% 29.58 in 8.0 mi NNW 16.1 mph - N/A   Overcast
4:11 PM 33.8 °F 23.2 °F 32.0 °F 93% 29.53 in 8.0 mi North 17.3 mph - N/A   Overcast
4:53 PM 34.0 °F 26.6 °F 32.0 °F 92% 29.60 in 8.0 mi NNW 9.2 mph - N/A   Overcast
5:53 PM 33.1 °F 23.4 °F 32.0 °F 96% 29.57 in 9.0 mi North 13.8 mph - N/A   Overcast
6:53 PM 33.1 °F 23.4 °F 32.0 °F 96% 29.59 in 8.0 mi NNW 13.8 mph - N/A   Overcast
7:53 PM 33.1 °F 23.9 °F 30.9 °F 92% 29.58 in 8.0 mi North 12.7 mph - N/A   Overcast
8:53 PM 33.1 °F 24.4 °F 30.9 °F 92% 29.61 in 10.0 mi North 11.5 mph - N/A   Overcast
9:04 PM 33.8 °F 25.3 °F 30.2 °F 87% 29.59 in 10.0 mi North 11.5 mph - N/A   Overcast
9:53 PM 33.1 °F 23.9 °F 30.9 °F 92% 29.62 in 8.0 mi North 12.7 mph - N/A   Overcast
10:07 PM 33.8 °F 23.9 °F 30.2 °F 87% 29.59 in 4.0 mi North 15.0 mph - 0.00 in Snow Light Snow
10:36 PM 33.8 °F 23.2 °F 30.2 °F 87% 29.56 in 4.0 mi North 17.3 mph - 0.00 in Snow Light Snow
10:53 PM 33.1 °F 22.6 °F 30.9 °F 92% 29.58 in 4.0 mi North 16.1 mph 24.2 mph 0.00 in Snow Light Snow
11:49 PM 33.8 °F 22.8 °F 30.2 °F 87% 29.52 in 10.0 mi North 18.4 mph 26.5 mph 0.00 in   Overcast
11:53 PM 33.1 °F 21.2 °F 30.0 °F 89% 29.55 in 10.0 mi North 20.7 mph 26.5 mph 0.00 in   Overcast